Flag for Austria Weather past 2 weeks in Enns, Upper Austria, Austria

Now
42 °F

Overcast.


Feels Like: N/A
Forecast: 36 / 52 °F
Wind: N/A

Location: Linz / Hoersching-Flughafen

Current Time: Oct 26, 2014 at 7:09:43 AM

Latest Report: Oct 26, 2014 at 6:00 AM


Visibility: 3 mi

Pressure: 30.38 "Hg

Humidity: 95%

Dew point: 41 °F

Location of EnnsLocation

Historic Weather in Enns — Graph

°F

Enns temperature yesterday

Maximum temperature yesterday: 47 °F (at 3:00 PM)
Minimum temperature yesterday: 40 °F (at 5:00 AM)
Average temperature yesterday: 44 °F

Past Weeks' High & Low Weather Summary

 TemperatureHumidityPressure
High71 °F (Oct 12, 4:00 PM)100% (Oct 12, 3:00 AM)30.37 "Hg (Oct 12, 3:00 AM)
Low40 °F (Oct 23, 2:00 AM)54% (Oct 14, 5:00 PM)29.61 "Hg (Oct 21, 11:00 PM)
Average53 °F89%30.01 "Hg
* Reported Oct 11 6:00 AM — Oct 26 5:00 AM, Enns, Weather by CustomWeather, © 2014

Note: Actual official high and low records may vary slightly from our data, if they occured in-between our weather recording intervals... More about our weather records

Advertising

Enns weather history for previous 24 hours

 ConditionsComfort  
Time TempWeatherWind HumidityBarometerVisibility
5:00 AM
Oct 26
43 °FLow clouds.N/A93%30.37 "Hg3 mi
4:00 AM42 °FOvercast.N/A94%30.37 "Hg3 mi
3:00 AM41 °FPassing clouds.N/A94%30.35 "Hg2 mi
2:00 AM43 °FPassing clouds.N/A92%30.35 "Hg4 mi
2:00 AM43 °FOvercast.N/A92%30.34 "Hg3 mi
1:00 AM42 °FOvercast.N/A93%30.34 "Hg3 mi
12:00 AM43 °FOvercast.N/A92%30.32 "Hg4 mi
11:00 PM
Oct 25
N/APassing clouds.6 mphN/AN/A2 mi
10:00 PM42 °FPassing clouds.N/A91%30.30 "Hg4 mi
9:00 PM43 °FPassing clouds.N/A90%30.29 "Hg4 mi
8:00 PM44 °FOvercast.N/A89%30.27 "Hg5 mi
7:00 PM44 °FOvercast.N/A91%30.26 "Hg5 mi
6:00 PM44 °FPassing clouds.N/A88%30.24 "Hg5 mi
5:00 PM46 °FPassing clouds.N/A81%30.23 "Hg6 mi
4:00 PM47 °FScattered clouds.N/A80%30.21 "Hg5 mi
3:00 PM47 °FScattered clouds.N/A79%30.21 "Hg5 mi
2:00 PM46 °FOvercast.N/A80%30.22 "Hg5 mi
1:00 PM45 °FPartly sunny.N/A81%30.23 "Hg4 mi
12:00 PM44 °FOvercast.N/A81%30.24 "Hg5 mi
11:00 AM43 °FPartly sunny.6 mph81%30.24 "Hg5 mi
10:00 AM43 °FOvercast.5 mph82%30.23 "Hg4 mi
9:00 AM40 °FOvercast.N/A89%30.23 "Hg3 mi
8:00 AM41 °FLow clouds.N/A88%30.21 "Hg4 mi
7:00 AM41 °FLow clouds.5 mph86%30.21 "Hg5 mi
Weather by CustomWeather, © 2014

See weather overviewHow to use our weather pages